Houston Clover, TX

6:43 PM CDT on August 17, 2017 (GMT -0500)
Clover

Weather History for KLVJ - June, 2014

Change the Weather History Date:

Tuesday, June 10, 2014

  Actual Average (KEFD) Record (KEFD)
Temperature  
Mean Temperature 83 °F -  
Max Temperature 91 °F 87 °F 98 °F (2012)
Min Temperature 72 °F 72 °F 71 °F (1997)
Cooling Degree Days 18    
Growing Degree Days 33 (Base 50)    
Moisture  
Dew Point 68 °F    
Average Humidity 67    
Maximum Humidity 84    
Minimum Humidity 34    
Precipitation  
Precipitation 0.01 in - - ()
Sea Level Pressure  
Sea Level Pressure 29.83 in    
Wind  
Wind Speed 8 mph (WSW)    
Max Wind Speed 14 mph    
Max Gust Speed 22 mph    
Visibility 10 miles    
Events Rain    
Averages and records for this station are not official NWS values.
T = Trace of Precipitation, MM = Missing Value Source: NWS Daily Summary

Daily Weather History Graph

Daily Weather History Graph

Search for Another Location

Airport or City:

Trip Planner

Search our weather history database for the weather conditions in past years. The results will help you decide how hot, cold, wet, or windy it might be!

Date:

Astronomy

Jun. 10, 2014 Rise Set
Actual Time 6:20 AM CDT 8:20 PM CDT
Civil Twilight 5:53 AM CDT 8:47 PM CDT
Nautical Twilight 5:20 AM CDT 9:20 PM CDT
Astronomical Twilight 4:45 AM CDT 9:55 PM CDT
Moon 5:56 PM CDT (6/10) 4:14 AM CDT (6/10)
Length of Visible Light 14h 54m
Length of Day
14h 00m
Waxing Gibbous, 92% of the Moon is Illuminated
Jun 10
Waxing Gibbous
Jun 12
Full
Jun 19
Last Quarter
Jun 27
New
Jul 5
First Quarter

Hourly Weather History & Observations

Time (CDT) Temp. Heat Index Dew Point Humidity Pressure Visibility Wind Dir Wind Speed Gust Speed Precip Events Conditions
12:53 AM 80.1 °F 84.5 °F 73.9 °F 81% 29.82 in 10.0 mi SSW 9.2 mph - N/A   Clear
1:53 AM 80.1 °F 84.5 °F 73.9 °F 81% 29.79 in 10.0 mi South 12.7 mph 17.3 mph N/A   Clear
2:33 AM 80.1 °F 84.5 °F 73.9 °F 81% 29.81 in 10.0 mi South 5.8 mph - N/A   Mostly Cloudy
2:53 AM 80.1 °F 84.5 °F 73.9 °F 81% 29.81 in 10.0 mi WSW 4.6 mph - N/A   Overcast
3:18 AM 80.1 °F 84.5 °F 73.9 °F 81% 29.80 in 10.0 mi SW 4.6 mph - 0.00 in   Overcast
3:33 AM 80.1 °F 84.5 °F 73.9 °F 81% 29.82 in 10.0 mi SW 6.9 mph - 0.00 in   Overcast
3:46 AM 80.1 °F 84.5 °F 73.9 °F 81% 29.82 in 9.0 mi WSW 6.9 mph - 0.00 in   Overcast
3:53 AM 80.1 °F 84.5 °F 73.9 °F 81% 29.81 in 9.0 mi SW 4.6 mph - 0.00 in   Overcast
4:53 AM 80.1 °F 84.5 °F 73.9 °F 81% 29.81 in 8.0 mi WSW 6.9 mph - 0.00 in Rain Light Rain
5:53 AM 79.0 °F - 73.9 °F 84% 29.81 in 9.0 mi WSW 6.9 mph - 0.01 in   Scattered Clouds
6:53 AM 77.0 °F - 72.0 °F 84% 29.84 in 9.0 mi WSW 8.1 mph - N/A   Mostly Cloudy
7:53 AM 77.0 °F - 69.1 °F 76% 29.85 in 10.0 mi West 8.1 mph - N/A   Scattered Clouds
8:53 AM 80.1 °F 82.3 °F 66.9 °F 64% 29.86 in 10.0 mi WSW 6.9 mph - N/A   Partly Cloudy
10:53 AM 84.0 °F 87.8 °F 69.1 °F 61% 29.87 in 10.0 mi West 13.8 mph 21.9 mph N/A   Scattered Clouds
12:53 PM 87.1 °F 88.9 °F 64.9 °F 48% 29.88 in 10.0 mi WNW 9.2 mph - N/A   Mostly Cloudy
2:53 PM 91.0 °F 90.5 °F 60.1 °F 35% 29.86 in 10.0 mi WNW 12.7 mph - N/A   Clear
4:53 PM 90.0 °F 88.8 °F 57.9 °F 34% 29.84 in 10.0 mi West 11.5 mph - N/A   Clear
5:53 PM 89.1 °F 88.2 °F 59.0 °F 36% 29.83 in 10.0 mi West 9.2 mph - N/A   Clear
6:53 PM 88.0 °F 87.6 °F 60.1 °F 39% 29.83 in 10.0 mi NW 6.9 mph - N/A   Clear
7:53 PM 86.0 °F 86.1 °F 61.0 °F 43% 29.83 in 10.0 mi WNW 8.1 mph - N/A   Clear
8:53 PM 82.0 °F 83.1 °F 63.0 °F 52% 29.84 in 10.0 mi Calm Calm - N/A   Clear
10:53 PM 75.0 °F - 64.9 °F 71% 29.87 in 10.0 mi Calm Calm - N/A   Clear
11:53 PM 72.0 °F - 64.0 °F 76% 29.88 in 10.0 mi Calm Calm - N/A   Clear